Погода в Жезказгане

Хотите узнать прогноз погоды в Жезказгане? Тогда Вам сюда: Погода в Жезказгане

Поиск расширенной информации на нашем сайте:

Полезная информация:

Новости сайта



02.01.2020
Опубликован Долгосрочный прогноз погоды по городам России и ближнего зарубежья на январь 2020 года.
Карты: Прогноз на январь и февраль 2020 года, Сравнение прогнозируемой аномалии приземной температуры воздуха на январь 2020 года по разным моделям.




Погода в Жезказгане - сегодня

Время (UTC), дата Ветер
(°,м/с) 
Видим.   Явления Облачность Т
(°С)
Тd
(°С)
f(%) Тe
(°С)
Pmin
(гПа)
dP
(гПа)
Po
(мм)
O2
(г/м3)
Тmin Tmax R s Состояние
почвы
15 02.07.20 320 (СЗ) 11-17  4000 м  гроза, ливневой дождь  10/10 600 м кучево-дожд. 
[Cb cap]
+17.5 +13.3 76 +24  1007.3  3.7  726  272    +23.8       
18 02.07.20 320 (СЗ) 20000 м  {гроза, ливн. осадки}  10/10 600 м кучево-дожд. 
[Cb cap]
+16.4 +12.7 79 +22  1009.4  1.9  727  274    +23.8     
21 02.07.20 320 (СЗ) 20000 м    10/10 600 м кучево-дожд. 
[Cb cap]
+13.3 +10.1 81 +14  1011.2  1.2  728  278           
00 03.07.20 320 (СЗ) 20000 м    5/5 600 м кучево-дожд. 
[Cb cap]
+11.1 +7.9 81 +10  1013.4  1.8  729  281           
03 03.07.20 320 (СЗ) 20000 м    4/0 средняя 
[Ac lent]
+14.8 +7.9 63 +14  1014.5  1.6  731  278         
06 03.07.20 330 (СЗ) 20000 м    6/5 600 м кучево-дожд., средняя 
[Cb cap|Ac lent]
+19.5 +7.3 45 +20  1014.8  0.9  731  274  +11       
09 03.07.20 320 (СЗ) 20000 м    8/8 600 м кучево-дожд. 
[Cb cap]
+22.7 +4.5 31 +23  1014.4  731  271           
12 03.07.20 310 (СЗ) 20000 м    8/8 600 м кучево-дожд. 
[Cb cap]
+21.8 +4.8 33 +22  1014.2  -0.3  731  272           
15 03.07.20 330 (СЗ) 20000 м    9/9 600 м кучево-дожд. 
[Cb cap]
+14.9 +8.5 65 +14  1015.6  0.4  731  278    +23.1       
18 03.07.20 320 (СЗ) 20000 м  в посл. час ливневой дождь  9/9 600 м кучево-дожд. 
[Cb cap]
+14.1 +10.3 78 +16  1014.7  -0.9  731  278    +23.1       
21 03.07.20 290 (З) 4000 м  дымка  5/3 600 м кучево-дожд., средняя 
[Cb cap|Ac lent]
+12.3 +10 86 +15  1014.8  -0.1  731  280           
00 04.07.20 310 (СЗ) 4000 м  дымка  5/3 600 м средняя 
[Sc|Ac lent]
+12 +10.3 89 +14  1014.3  -0.5  730  280           
03 04.07.20 320 (СЗ) 20000 м    5/3 600 м средняя, верхняя 
[Sc|Ac lent|Ci fib]
+16.5 +12 75 +21  1014.5  0.7  731  275         
06 04.07.20 350 (С) 20000 м    5/3 1000 м средняя, верхняя 
[Cu hum|Ac lent|Ci fib]
+22.8 +13 54 +29  1013  -0.5  730  269  +11.9       
09 04.07.20 350 (С) 20000 м    5/5 1000 м 
[Cu hum]
+26.5 +10.5 37 +29  1011.3  -1.2  729  266           
12 04.07.20 320 (СЗ) 20000 м    8/8 600 м кучево-дожд. 
[Cb cap]
+28.1 +11.2 35 +31  1009.8  -1.2  729  264           
15 04.07.20 010 (С) 20000 м    6/6 600 м кучево-дожд. 
[Cb cap]
+20.8 +13.8 64 +28  1012  1.2  729  270    +29       
18 04.07.20 360 (С) 20000 м    6/6 600 м кучево-дожд. 
[Cb cap]
+17.9 +14.1 78 +26  1013  0.5  730  273    +29       
21 04.07.20 350 (С) 20000 м    4/4 600 м кучево-дожд. 
[Cb cap]
+16.7 +13.9 84 +26  1012.3  -0.8  729  274           
00 05.07.20 010 (С) 20000 м    4/3 600 м средняя 
[Sc|Ac lent]
+14.5 +12 85 +20  1012  -0.6  729  276           
03 05.07.20 360 (С) 20000 м    4/0 средняя 
[Ac lent]
+19.3 +11.4 60 +23  1011.8  0.4  751  280           
06 05.07.20 360 (С) 20000 м    6/6 600 м кучево-дожд. 
[Cb cap]
+24.2 +8 36 +24  1010.5  -0.6  729  268  +14.4         
09 05.07.20 360 (С) 20000 м    8/8 600 м кучево-дожд. 
[Cb cap]
+26.2 +7.2 30 +26  1009.2  -1  728  266           
12 05.07.20 350 (С) 20000 м    6/6 600 м кучево-дожд. 
[Cb cap]
+26.4 +5.5 26 +26  1008.4  -0.8  727  266           
15 05.07.20 350 (С) 20000 м    3/3 600 м кучево-дожд. 
[Cb cap]
+25.1 +4.4 26 +25  1008.7  0.1  727  268    +27.5       
Время (UTC), дата Ветер
(°,м/с) 
Видим.   Явления Облачность Т
(°С)
Тd
(°С)
f(%) Тe
(°С)
Pmin
(гПа)
dP
(гПа)
Po
(мм)
O2
(г/м3)
Тmin Tmax R s Состояние
почвы

Для получения пояснительной информации подведите курсор к названию столбца.

ПОГОДА в Жезказгане - архив

Всё, что Вы хотите узнать о погоде в Жезказгане - удобно и подробно!

Выберите нужную дату (начиная с 1 января 2019* года) и нажмите кнопку "Найти".
Будут отображены архивные сводки погоды по пункту Жезказган, начиная с указанной даты.


Отображать данные в формате CSV (для использования в таблицах Excel)


Внимание! Наш архив погоды предназначен исключительно для личного некоммерческого использования в познавательных целях. Если Вам необходимы официальные справки о состоянии погоды (для производственных, юридических, коммерческих и т.п. целей), обращайтесь в органы Росгидромета.

*Примечание: данная дата относится к архиву по метеостанциям СССР (Россия, СНГ, Балтия).
Архив по метеостанциям Зарубежной Европы и Азии (кроме Китая) хранится 10 дней, по другим регионам земного шара (Китай, Африка, Америка, Австралия, Океания) - 1 день.

Жезказган - район местоположения метеостанции


Название, широта, долгота, высота метеостанции:
Жезказган 47.8°ш. 67.7°д. 346 м над ур. моря [Казахстан]

Дополнительная информация

В oтличие oт бoльшинства пoгoдных сайтoв мы публикуем пoдрoбную метеoинфoрмацию в детальнoм прoфессиoнальнoм фoрмате.

Характеристики температуры и влажнoсти вoздуха измеряются на высoте 2 м в тени вдали oт зданий и деревьев.
Скoрoсть ветра измеряется на высoте 10 м (на урoвне рoста челoвека скoрoсть ветра ниже в 1.5-2 раза). Если метеoстанция нахoдится в гoрoде или в лесу, тo скoрoсть ветра занижена на 2-4 м/с пo сравнению с oткрытым местoм. Скoрoсть ветра над акватoриями крупных рек и oзёр, а также на вершинах хoлмoв на 2-5 м/с выше, чем в oбычных услoвиях.
Атмoсфернoе давление в разных тoчках местнoсти мoжет значительнo oтличаться oт давления на метеoстанции, в зависимoсти oт услoвий рельефа (при пoдъёме на 10 м давление пoнижается примернo на 1 мм рт.ст.).